FW9226 Weather Reports


Display with metric or nautical units.
time (UTC)temp
F
wind
direction
speed
MPH
gust
MPH
rain 1hr
in
rain 24hr
in
rain mn
in
humidity
%
barometer
mb
20260505125007 41 54 0.0 0.0 0.04 0.44 0.13 95 1013.1
20260505124505 41 54 0.0 0.0 0.04 0.44 0.13 95 1013.1
20260505124006 41 54 0.0 1.0 0.05 0.44 0.13 95 1013.0
20260505123505 41 54 0.0 1.0 0.04 0.43 0.12 95 1013.0
20260505123004 41 54 0.0 0.0 0.04 0.42 0.11 95 1012.9
20260505122505 41 54 0.0 0.0 0.04 0.42 0.11 95 1012.8
20260505122006 41 54 0.0 0.0 0.03 0.41 0.10 95 1013.0
20260505121500 41 54 0.0 0.0 0.03 0.41 0.10 95 1012.7
20260505120505 41 54 0.0 0.0 0.03 0.41 0.10 95 1012.8
20260505120006 41 54 0.0 0.0 0.03 0.41 0.10 95 1012.8
20260505115003 41 54 0.0 1.0 0.02 0.40 0.09 95 1012.9
20260505114005 41 54 0.0 0.0 0.01 0.39 0.08 95 1012.8
20260505113505 41 54 0.0 0.0 0.01 0.39 0.08 95 1012.8
20260505113000 41 54 0.0 0.0 0.00 0.38 0.07 95 1012.8
20260505112505 41 54 0.0 0.0 0.00 0.38 0.07 95 1012.8
20260505112005 41 54 0.0 1.0 0.00 0.38 0.07 95 1012.7
20260505111504 41 54 0.0 1.0 0.00 0.38 0.07 95 1012.7
20260505111001 41 54 0.0 1.0 0.00 0.38 0.07 95 1012.8
20260505110459 41 54 0.0 1.0 0.00 0.38 0.07 95 1013.0
20260505102006 41 54 0.0 0.0 0.00 0.38 0.07 95 1013.1
20260505101504 41 54 0.0 0.0 0.00 0.38 0.07 95 1013.1
20260505100505 41 54 0.0 0.0 0.00 0.38 0.07 95 1013.1
20260505095959 41 54 0.0 0.0 0.00 0.38 0.07 95 1013.3
20260505095458 41 54 0.0 0.0 0.00 0.38 0.07 95 1013.3
20260505094459 41 54 0.0 1.0 0.00 0.38 0.07 95 1013.3
20260505093959 41 54 0.0 0.0 0.00 0.38 0.07 95 1013.3
20260505093006 41 54 0.0 0.0 0.01 0.38 0.07 95 1013.4
20260505092458 41 54 0.0 0.0 0.01 0.38 0.07 95 1013.5
20260505092004 41 54 0.0 0.0 0.02 0.38 0.07 95 1013.6
20260505091503 41 54 0.0 0.0 0.02 0.38 0.07 95 1013.6
20260505091005 41 54 0.0 0.0 0.03 0.38 0.07 95 1013.6
20260505084959 41 54 0.0 1.0 0.03 0.38 0.07 95 1013.5
20260505084459 41 54 0.0 1.0 0.04 0.38 0.07 95 1013.6
20260505084000 41 54 0.0 1.0 0.04 0.38 0.07 95 1013.7
20260505083458 42 54 0.0 1.0 0.03 0.37 0.06 95 1013.8
20260505082459 42 54 0.0 1.0 0.04 0.37 0.06 95 1013.9
20260505082005 42 54 0.0 0.0 0.03 0.36 0.05 95 1013.9
20260505081504 42 54 0.0 0.0 0.04 0.36 0.05 95 1013.8
20260505080959 42 54 0.0 0.0 0.03 0.35 0.04 95 1013.9
20260505080504 42 54 0.0 1.0 0.03 0.35 0.04 95 1013.8
20260505075959 42 54 0.0 1.0 0.04 0.35 0.04 95 1013.7
20260505075458 42 54 0.0 0.0 0.04 0.35 0.04 95 1013.7
20260505075005 42 54 0.0 0.0 0.05 0.35 0.04 95 1013.7
20260505074506 42 54 0.0 0.0 0.05 0.34 0.03 95 1013.7
20260505073505 42 54 0.0 0.0 0.06 0.34 0.03 95 1013.7
20260505073000 42 54 0.0 0.0 0.06 0.33 0.02 95 1013.8
20260505072458 42 54 0.0 0.0 0.07 0.33 0.02 95 1013.7
20260505072005 42 54 0.0 0.0 0.08 0.33 0.02 95 1013.7
20260505071507 42 54 0.0 0.0 0.07 0.32 0.01 95 1013.7
20260505071006 42 54 0.0 0.0 0.08 0.32 0.01 95 1013.6
20260505070504 42 54 0.0 0.0 0.08 0.32 0.01 95 1013.7
20260505070016 42 54 0.0 0.0 0.08 0.31 0.00 95 1013.7
20260505065506 42 54 0.0 0.0 0.08 0.31 0.31 95 1013.7
20260505065006 42 54 0.0 0.0 0.07 0.30 0.30 95 1013.7
20260505064505 42 54 0.0 0.0 0.06 0.29 0.29 95 1013.7
20260505064006 42 54 0.0 0.0 0.06 0.29 0.29 95 1013.8
20260505063503 42 54 0.0 1.0 0.06 0.28 0.28 95 1013.8
20260505062505 42 54 0.0 1.0 0.04 0.26 0.26 95 1013.8
20260505062006 42 54 0.0 1.0 0.03 0.25 0.25 95 1013.8
20260505061505 42 54 0.0 0.0 0.03 0.25 0.25 95 1013.9
20260505061007 42 54 0.0 0.0 0.02 0.24 0.24 95 1013.9
20260505060505 42 54 0.0 0.0 0.03 0.24 0.24 95 1013.9
20260505060008 42 54 0.0 1.0 0.02 0.23 0.23 95 1013.9
20260505055006 42 55 0.0 1.0 0.02 0.23 0.23 95 1013.8
20260505054006 42 54 0.0 1.0 0.03 0.23 0.23 95 1013.8
20260505053505 42 55 0.0 1.0 0.02 0.22 0.22 94 1013.8
20260505053006 42 54 0.0 3.0 0.02 0.22 0.22 95 1013.9
20260505051504 42 58 0.0 2.0 0.02 0.22 0.22 95 1014.0
20260505051004 42 57 0.0 3.0 0.02 0.22 0.22 95 1014.0
20260505041006 42 91 0.0 1.0 0.01 0.20 0.20 94 1014.0
20260505040506 42 90 0.0 1.0 0.01 0.20 0.20 94 1014.0
20260505040006 42 90 0.0 1.0 0.00 0.19 0.19 94 1013.9
20260505035505 42 104 0.0 1.0 0.00 0.19 0.19 94 1013.9
20260505035006 42 120 0.0 3.0 0.00 0.19 0.19 94 1013.9
20260505034505 42 120 0.0 3.0 0.00 0.19 0.19 94 1013.9
20260505034005 42 73 0.0 2.0 0.00 0.19 0.19 94 1013.9
20260505032506 42 72 0.0 1.0 0.00 0.19 0.19 94 1013.7
20260505032005 42 72 0.0 1.0 0.00 0.19 0.19 94 1013.7
20260505030505 42 65 0.0 2.0 0.00 0.19 0.19 94 1013.7
20260505030010 42 99 0.0 1.0 0.00 0.19 0.19 94 1013.5
20260505025507 42 99 0.0 1.0 0.00 0.19 0.19 94 1013.6
20260505025004 42 99 0.0 1.0 0.00 0.19 0.19 94 1013.6
20260505024506 42 99 0.0 1.0 0.00 0.19 0.19 94 1013.6
20260505024006 42 99 0.0 2.0 0.00 0.19 0.19 94 1013.7
20260505023006 42 104 0.0 1.0 0.00 0.19 0.19 94 1013.8
20260505022504 42 104 0.0 1.0 0.00 0.19 0.19 94 1013.6
20260505021506 42 104 0.0 1.0 0.00 0.19 0.19 94 1013.8
20260505021009 42 105 0.0 2.0 0.00 0.19 0.19 94 1014.0
20260505020505 42 104 0.0 2.0 0.00 0.19 0.19 94 1013.9
20260505020016 42 72 0.0 1.0 0.00 0.19 0.19 94 1014.0
20260505014506 42 77 0.0 5.0 0.00 0.19 0.19 93 1014.2
20260505014013 43 75 0.0 4.0 0.00 0.19 0.19 94 1014.2
20260505013505 43 56 0.0 4.0 0.00 0.19 0.19 93 1014.2
20260505013008 43 83 0.0 1.0 0.00 0.19 0.19 93 1014.3
20260505012505 43 93 0.0 1.0 0.00 0.19 0.19 94 1014.3
20260505012007 43 93 0.0 1.0 0.00 0.19 0.19 93 1014.3
20260505011507 43 73 0.0 2.0 0.00 0.19 0.19 93 1014.2
20260505011007 43 93 0.0 2.0 0.00 0.19 0.19 93 1014.3
20260505010505 43 91 1.0 5.0 0.00 0.19 0.19 92 1014.3
20260505010009 43 55 1.0 5.0 0.00 0.19 0.19 93 1014.3
20260505005505 43 86 1.0 4.0 0.00 0.19 0.19 93 1014.4
20260505005013 43 99 0.0 4.0 0.00 0.19 0.19 93 1014.3
20260505004505 44 141 0.0 3.0 0.00 0.19 0.19 93 1014.3
20260505004005 44 130 0.0 3.0 0.00 0.19 0.19 93 1014.3
20260505003006 44 94 0.0 2.0 0.00 0.19 0.19 93 1014.2
20260505002007 44 115 0.0 5.0 0.00 0.19 0.19 93 1014.2
20260505001506 44 140 0.0 5.0 0.00 0.19 0.19 93 1014.1
20260505001012 44 233 0.0 2.0 0.00 0.19 0.19 93 1014.2
20260504235504 44 110 1.0 2.0 0.00 0.19 0.19 94 1014.2
20260504235005 44 77 1.0 5.0 0.00 0.19 0.19 94 1014.3
20260504234505 43 59 1.0 5.0 0.00 0.19 0.19 94 1014.5
20260504234006 43 62 1.0 3.0 0.01 0.19 0.19 93 1014.4
20260504233505 43 100 0.0 2.0 0.02 0.19 0.19 94 1014.4
20260504232005 43 111 0.0 2.0 0.02 0.19 0.19 94 1014.5
20260504231500 43 120 0.0 2.0 0.03 0.19 0.19 94 1014.5
20260504231005 43 254 1.0 4.0 0.03 0.19 0.19 94 1014.5
20260504230500 43 96 1.0 4.0 0.04 0.19 0.19 94 1014.5
20260504230002 43 112 1.0 4.0 0.04 0.19 0.19 94 1014.4
20260504225504 43 98 1.0 4.0 0.05 0.19 0.19 94 1014.5
20260504225005 43 79 0.0 3.0 0.05 0.19 0.19 94 1014.6
20260504224505 43 87 1.0 3.0 0.05 0.19 0.19 94 1014.6
20260504223505 44 113 1.0 3.0 0.03 0.17 0.17 94 1014.6
20260504223003 44 102 1.0 3.0 0.04 0.17 0.17 94 1014.7
20260504222007 44 75 1.0 4.0 0.04 0.17 0.17 94 1014.7
20260504221506 44 95 1.0 2.0 0.03 0.16 0.16 94 1014.7
20260504221008 44 87 0.0 3.0 0.03 0.16 0.16 94 1014.8
20260504220506 44 139 1.0 4.0 0.02 0.15 0.15 94 1014.8
20260504220008 44 200 1.0 4.0 0.02 0.15 0.15 93 1014.8
20260504215506 44 117 1.0 3.0 0.01 0.14 0.14 93 1014.9
20260504215004 44 138 1.0 4.0 0.02 0.14 0.14 95 1014.8
20260504214505 44 75 1.0 4.0 0.02 0.14 0.14 94 1014.9
20260504214001 44 70 1.0 4.0 0.02 0.14 0.14 95 1014.8
20260504213505 44 121 0.0 2.0 0.02 0.14 0.14 95 1014.9
20260504213005 44 136 0.0 2.0 0.01 0.13 0.13 95 1014.9
20260504212505 44 136 0.0 2.0 0.01 0.13 0.13 95 1014.9
20260504212006 44 110 1.0 5.0 0.01 0.13 0.13 95 1014.9
20260504211505 44 68 1.0 5.0 0.01 0.13 0.13 94 1014.9
20260504211005 44 131 0.0 2.0 0.01 0.13 0.13 95 1015.0
20260504210500 44 137 0.0 1.0 0.01 0.13 0.13 95 1014.9
20260504210005 44 96 0.0 1.0 0.01 0.13 0.13 95 1014.9
20260504205504 44 105 0.0 1.0 0.01 0.13 0.13 95 1014.8
20260504204005 43 49 1.0 3.0 0.00 0.12 0.12 95 1014.8
20260504203505 44 84 0.0 1.0 0.00 0.12 0.12 95 1014.9
20260504203007 44 18 0.0 1.0 0.00 0.12 0.12 95 1014.7
20260504202504 44 18 0.0 1.0 0.00 0.12 0.12 95 1014.7
20260504201506 43 83 1.0 4.0 0.00 0.12 0.12 95 1014.5
20260504201009 43 140 1.0 4.0 0.00 0.12 0.12 94 1014.5
20260504200505 43 66 2.0 4.0 0.00 0.12 0.12 95 1014.4
20260504200005 43 74 2.0 4.0 0.00 0.12 0.12 94 1014.5
20260504195506 43 63 1.0 4.0 0.00 0.12 0.12 94 1014.4
20260504195006 44 119 0.0 2.0 0.00 0.12 0.12 94 1014.5
20260504194506 43 153 0.0 2.0 0.00 0.12 0.12 94 1014.5
20260504194006 43 120 0.0 2.0 0.00 0.12 0.12 94 1014.6
20260504193507 43 139 0.0 2.0 0.00 0.12 0.12 94 1014.6
20260504193008 43 141 0.0 2.0 0.00 0.12 0.12 94 1014.5
20260504192506 43 229 1.0 2.0 0.00 0.12 0.12 94 1014.4
20260504192006 44 162 0.0 2.0 0.00 0.12 0.12 94 1014.4
20260504191505 44 153 0.0 2.0 0.00 0.12 0.12 94 1014.5
20260504191009 43 111 1.0 4.0 0.00 0.12 0.12 94 1014.6
20260504190505 44 325 0.0 4.0 0.00 0.12 0.12 93 1014.5
20260504190006 44 136 1.0 3.0 0.00 0.12 0.12 93 1014.5
20260504185506 44 94 1.0 4.0 0.00 0.12 0.12 93 1014.5
20260504185008 44 117 0.0 4.0 0.00 0.12 0.12 93 1014.7
20260504184005 45 148 0.0 3.0 0.00 0.12 0.12 93 1014.6
20260504183505 45 89 0.0 1.0 0.00 0.12 0.12 93 1014.5
20260504183006 45 79 0.0 2.0 0.00 0.12 0.12 93 1014.5
20260504182507 45 300 1.0 3.0 0.01 0.12 0.12 93 1014.4
20260504182006 45 153 1.0 3.0 0.02 0.12 0.12 93 1014.5
20260504181506 45 142 0.0 2.0 0.03 0.12 0.12 93 1014.5
20260504181006 45 129 0.0 2.0 0.04 0.12 0.12 93 1014.6
20260504180509 45 142 0.0 2.0 0.04 0.12 0.12 94 1014.5
20260504180005 45 147 0.0 2.0 0.05 0.12 0.12 93 1014.4
20260504175007 45 77 0.0 1.0 0.05 0.12 0.12 94 1014.4
20260504174506 45 153 0.0 2.0 0.05 0.12 0.12 95 1014.3
20260504174006 44 153 0.0 2.0 0.05 0.12 0.12 93 1014.3
20260504173506 44 145 1.0 4.0 0.05 0.12 0.12 94 1014.2
20260504173008 44 136 1.0 4.0 0.06 0.12 0.12 94 1014.1
20260504172504 44 108 0.0 1.0 0.05 0.11 0.11 94 1013.7
20260504172008 44 157 0.0 0.0 0.05 0.10 0.10 94 1013.9
20260504171506 44 157 0.0 0.0 0.04 0.09 0.09 94 1014.2
20260504171005 43 157 0.0 1.0 0.04 0.08 0.08 93 1014.2
20260504170505 43 157 0.0 1.0 0.03 0.07 0.07 94 1014.1
20260504151005 41 141 0.0 0.0 0.02 0.02 0.02 95 1013.8
20260504150501 41 141 0.0 1.0 0.02 0.02 0.02 95 1013.8
20260504141005 41 66 0.0 1.0 0.00 0.00 0.00 95 1013.7
20260504140501 40 66 0.0 1.0 0.00 0.00 0.00 95 1013.7